COSMOS 1256

Satellite information

Favourite Embed

Satellite Type and Status

PAYLOADIN ORBIT

Key statistics

Satellite COSMOS 1256 at a glance.

Uptime

16308

Days in orbit

Revolutions

≈ 12.5

Per day

Orbit

LEO

Low Earth Orbit

Inclination

74.0

Latest

Satellite identification and parameters

Extended collection of information and parameters for COSMOS 1256.

Object identification

Identified? True

Debris? False

Object name: COSMOS 1256

International designator: 1981-022G

Object number (NORAD): 12326

Object ID (CCSDS): 12326

Country: COMMONWEALTH OF INDEPENDENT STATES (CIS)

Current information (Y/N): Y

RCS size: MEDIUM

Orbital parameters

Period: 115.237 minutes

Inclination: 74.0275 deg

SMA: 7844.323 km

Apoapsis: 1475.733 km

Periapsis: 1456.642 km

RAAN: 295.8566 deg

Eccentricy: 0.00121688

Argument of periapsis: 150.2489 deg

Mean anomaly: 320.4146 deg

Mean motion: 12.49595896 rev/day

Mean motion (dot): 0.00000003 rev/day2

B* drag term: 0.0001212717 1/REarth

Two-line elements (TLE)

Creation date: Oct. 28, 2025, 7:11 p.m.

Reference frame: TEME

Reference center: EARTH

Epoch: Oct. 28, 2025, 9:59 a.m. UTC

TLE line 0: 0 COSMOS 1256

TLE line 1: 1 12326U 81022G 25301.41654750 .00000003 00000-0 12127-3 0 9999

TLE line 2: 2 12326 74.0275 295.8566 0012169 150.2489 320.4146 12.49595896 36647

Live tracking on map

Real-time ground track for satellite COSMOS 1256.

In-orbit conjunctions

A list of the most updated potential collisions computed for object COSMOS 1256.

Target Orbit TCA Probability of collision Miss distance Type
COSMOS 2010 LEO 2024-07-30 16:40:17 0.0004778976 44.0 (m) PAYLOAD

Associated space launch

Military communications satellites

COSMOS 1256 was lifted into orbit during the mission ‘Kosmos-3M | Strela-1M 209-216’, on board a Kosmos-3M space rocket.

The launch took place on March 6, 1981, 11:31 a.m. from 132/2.

For more information about the launch, click the button.

Launch to space Kosmos-3M | Strela-1M 209-216
Kosmos-3M | Strela-1M 209-216

Agency: N/A

Status: Launch Successful

Launch date: March 6, 1981, 11:31 a.m. UTC

Rocket: Kosmos-3M

Launch pad: 132/2

Location: Plesetsk Cosmodrome, Russian Federation

...

Latest news about this satellite

There are no fresh news available about this satellite. Check back as we update our databases every day.


Newsletter sign-up

Weekly statistics, charts and insights to help you stay on top of the space industry.